Wind_Speed
32 33 35 38 41 44 46 47 48 45 33 30 28 29 31 33 31 31 32 29 29 29 29 32 37 38 25 29 27 10 18 23 25 27 29 30 32 35 35 36 36 38 36 35 34 31 32
32 34 37 39 43 46 48 50 45 34 31 27 26 29 28 26 25 26 25 23 25 24 27 30 38 42 28 33 17 23 9 21 24 27 29 31 30 30 29 31 34 30 34 32 30 29 30
34 36 38 42 46 49 52 46 34 29 28 26 23 25 25 22 19 19 19 19 20 19 23 29 38 41 26 28 23 23 16 16 21 25 27 28 27 28 24 28 23 31 15 29 31 28 30
36 38 41 44 49 52 52 32 27 28 26 25 22 21 20 17 15 17 18 18 18 14 15 29 36 44 26 25 21 24 21 19 24 22 20 22 25 26 21 20 16 16 25 18 23 24 26
38 40 43 46 52 55 43 29 26 28 24 23 18 15 14 14 14 14 15 15 14 15 14 27 42 29 26 21 28 28 27 19 23 24 23 25 25 25 21 18 14 18 12 23 20 19 21
38 41 45 49 54 53 36 27 25 25 22 19 14 15 12 10 14 16 13 11 11 9 16 28 43 19 17 25 24 26 26 25 20 26 27 29 27 27 28 26 18 13 20 19 20 16 17
40 42 46 51 56 47 33 28 27 22 19 19 16 14 10 12 20 26 17 8 10 10 18 30 37 24 26 22 29 27 28 26 20 24 27 28 29 31 25 27 23 13 14 15 14 18 25
41 45 48 52 52 44 36 30 27 23 21 19 19 17 16 17 21 24 16 6 9 9 18 30 18 22 23 20 29 29 28 24 21 23 21 27 31 28 22 22 21 15 14 14 14 20 22
42 45 49 54 48 42 38 33 29 25 23 22 23 22 22 23 25 22 14 5 9 9 25 24 23 27 30 27 30 32 31 27 24 19 23 19 16 17 29 27 26 20 16 16 18 18 23
41 45 51 53 46 42 38 34 30 27 25 24 25 22 24 25 21 9 2 5 8 17 20 14 30 22 26 27 31 32 27 22 23 24 17 12 13 18 19 22 18 14 12 12 14 14 8
40 44 49 49 44 39 40 36 34 31 29 27 24 18 15 12 6 3 7 9 23 24 6 20 26 25 25 25 32 31 27 23 23 18 19 10 10 16 17 19 19 12 11 12 13 14 16
38 44 48 45 40 39 39 34 32 30 29 22 19 18 12 8 9 13 14 23 25 2 5 12 17 29 28 12 34 33 26 21 17 15 11 8 11 8 11 12 15 15 13 11 13 13 3
35 40 45 42 37 35 34 32 31 31 27 25 26 23 17 18 18 21 18 24 3 4 11 19 26 29 25 27 31 29 23 21 11 15 15 12 13 13 11 13 10 13 9 2 3 2 5
35 38 42 38 34 31 31 26 28 28 27 26 28 21 18 19 21 22 16 7 7 12 10 27 33 31 27 26 28 21 25 21 12 13 17 10 6 13 11 12 10 15 12 4 5 1 4
31 35 37 33 30 25 24 25 26 27 30 34 27 21 19 22 19 14 12 15 9 11 26 37 30 28 25 22 20 21 22 19 13 14 9 12 5 14 7 10 11 10 10 11 2 2 2
28 30 32 28 26 21 20 21 24 25 26 26 21 22 21 16 12 13 22 22 22 27 34 29 20 14 19 17 22 18 22 19 17 14 13 7 7 8 12 12 15 13 9 5 6 1 3
25 25 26 22 22 17 19 20 21 24 23 20 20 20 19 17 17 20 25 27 34 36 25 13 9 19 22 21 17 20 21 9 21 16 12 13 6 10 10 10 17 15 13 7 5 2 3
24 21 22 18 17 12 13 15 16 18 19 20 16 17 15 18 19 23 20 21 22 17 15 13 9 18 18 18 18 22 17 11 24 20 13 13 6 7 14 5 7 16 14 13 4 4 3
20 19 19 17 14 12 6 7 10 14 16 14 16 19 20 19 22 23 22 18 13 11 10 10 7 11 14 16 12 21 18 12 8 28 15 12 5 4 2 9 13 13 19 18 16 10 11
20 17 16 18 15 14 7 6 5 5 6 7 11 10 15 16 18 19 18 15 13 6 6 7 9 10 18 14 5 14 12 12 9 20 17 11 9 5 5 1 3 11 20 16 17 9 11
22 16 15 17 18 17 12 7 8 4 4 4 5 6 7 11 14 13 13 14 18 17 11 12 11 16 15 6 9 13 14 12 12 12 18 14 5 9 11 11 13 10 10 14 21 24 20
25 17 14 15 18 17 17 9 7 7 5 5 2 12 14 13 12 13 11 8 7 13 17 18 20 12 8 10 9 16 16 16 11 16 18 15 7 6 9 11 13 17 20 22 26 28 33
25 20 15 16 14 18 15 14 10 8 7 6 7 5 5 8 8 10 9 6 8 8 9 10 9 8 10 5 7 7 3 10 3 10 17 14 6 6 3 3 8 16 13 18 14 12 13
29 26 21 16 15 15 16 12 11 10 10 9 10 12 10 8 8 9 9 10 6 5 7 9 9 9 11 7 8 7 5 8 4 4 11 9 10 8 6 5 1 3 4 1 8 10 10
32 32 25 18 17 14 15 14 11 10 9 11 10 14 18 16 13 12 12 9 9 7 5 10 11 11 12 9 7 4 6 5 8 7 8 11 11 4 3 4 12 8 7 5 7 1 3
35 33 27 20 17 16 14 13 12 11 10 9 9 12 15 17 20 19 17 17 14 12 9 10 12 13 12 12 12 6 6 5 7 5 14 13 13 11 4 3 3 4 8 7 10 2 9
35 27 25 22 19 17 15 14 13 12 12 13 10 8 13 18 19 19 22 18 17 16 11 13 11 12 13 16 14 7 7 7 5 7 10 15 16 17 16 8 9 9 3 7 2 4 15
22 23 20 22 19 16 16 15 14 13 14 15 15 15 16 15 14 21 25 24 22 19 15 13 13 15 16 15 11 8 8 11 8 9 9 12 11 10 13 7 9 7 3 9 11 12 16
20 20 20 22 17 15 17 17 16 17 18 17 20 22 24 24 19 18 27 28 26 24 23 20 15 5 12 11 13 9 9 9 14 7 16 10 14 5 10 4 5 7 10 15 14 16 17
Wind_Direction
331 330 329 328 327 326 325 324 321 317 313 312 313 304 299 291 287 278 273 273 270 242 231 228 212 215 228 232 230 228 213 209 208 206 204 203 208 211 211 215 217 225 230 233 238 239 245
332 331 331 330 328 327 326 325 321 318 318 319 317 311 311 310 299 288 284 278 265 266 221 217 209 209 235 228 207 224 206 201 202 202 202 201 207 211 214 216 219 229 231 235 238 240 244
335 334 334 332 331 330 330 327 320 323 327 328 327 321 317 314 298 286 283 278 273 272 235 205 202 212 242 224 201 208 199 194 197 203 202 200 200 204 208 213 222 219 229 234 236 239 244
335 336 336 336 334 331 332 328 324 322 324 324 327 327 327 326 314 302 294 282 276 262 245 203 193 207 232 200 193 192 189 178 181 181 184 195 194 196 200 200 212 216 222 225 232 234 241
337 338 339 339 336 336 330 326 321 319 322 322 320 322 325 333 329 324 315 299 274 256 231 205 187 207 226 207 188 186 189 176 181 181 179 182 190 198 195 187 186 203 214 228 242 244 246
339 341 343 341 339 337 331 328 323 329 325 323 316 314 318 334 325 321 319 299 261 249 215 202 182 204 215 212 190 185 188 187 183 183 181 180 190 199 205 192 193 187 217 232 235 235 242
341 344 344 343 341 340 332 323 321 321 326 320 312 306 309 323 318 326 323 268 238 224 208 187 179 191 205 180 180 181 181 180 178 182 188 186 193 200 205 204 210 220 234 241 246 243 251
345 346 345 345 343 340 334 331 325 324 320 318 315 308 300 309 312 322 320 243 220 220 188 173 176 179 175 180 169 177 177 180 179 185 178 191 205 203 198 204 204 202 211 237 252 246 265
346 347 348 347 345 340 341 342 339 331 323 315 314 304 301 303 305 304 316 254 211 190 149 168 161 195 167 176 179 174 178 189 195 193 208 195 221 212 198 210 210 224 232 245 247 262 273
347 350 350 350 348 346 350 352 347 339 337 324 324 315 309 305 301 312 267 179 174 149 158 158 161 153 162 170 175 174 174 181 184 196 185 200 197 213 218 205 197 206 225 250 266 282 285
348 353 352 352 351 351 357 355 356 354 346 339 335 335 325 329 4 52 105 124 141 140 134 150 151 157 157 160 176 177 174 189 193 178 194 189 171 175 177 184 204 220 235 256 273 282 291
350 356 354 356 354 357 5 7 4 359 2 1 8 2 13 31 80 96 91 136 145 81 74 146 155 152 153 157 166 164 179 184 193 197 191 163 166 161 187 210 230 237 245 263 276 280 293
353 359 359 357 358 6 16 20 22 28 27 27 23 32 59 78 86 89 103 138 117 47 113 136 137 163 151 149 159 170 159 177 171 166 175 169 176 194 199 192 192 220 227 285 323 28 222
354 1 5 358 360 12 19 27 32 35 38 38 38 39 63 81 83 103 104 73 52 71 107 130 131 137 133 150 160 162 176 182 169 183 158 169 174 188 202 214 225 216 212 206 228 245 292
355 1 7 360 3 14 30 37 42 49 52 51 43 53 68 81 83 83 37 39 42 86 111 131 134 129 135 154 163 175 179 188 192 195 176 174 167 195 196 216 202 207 215 221 256 279 337
354 2 7 3 2 13 43 53 57 62 64 65 62 64 83 74 52 54 75 77 85 118 130 136 124 144 150 160 168 183 178 194 187 203 205 184 156 177 201 202 212 223 209 186 202 105 275
346 359 8 5 4 16 58 62 60 67 67 71 81 79 49 62 80 93 86 102 121 137 142 142 126 143 158 165 185 183 182 190 201 194 192 178 185 179 203 216 213 200 195 193 170 204 160
337 353 5 1 1 10 56 61 65 71 69 67 70 76 81 90 99 89 97 116 123 139 146 123 107 169 172 171 179 188 202 218 196 200 189 188 187 184 206 196 209 228 225 215 203 192 176
328 337 349 354 345 343 27 52 58 58 78 68 79 79 85 98 99 98 97 105 119 156 167 176 156 179 187 176 177 196 206 201 196 203 203 205 209 165 192 234 226 218 225 232 239 252 230
328 327 337 344 332 330 321 348 19 39 47 59 81 94 98 92 94 100 96 90 89 117 155 188 197 172 167 174 173 183 181 199 216 193 205 218 231 220 189 94 205 217 236 239 235 222 236
326 314 321 331 332 331 313 303 317 303 333 29 82 104 123 113 99 107 110 115 105 101 118 180 156 148 157 163 179 184 175 176 174 186 187 207 255 254 260 263 259 251 235 227 231 245 252
324 302 305 318 326 326 334 301 288 295 284 290 79 118 121 122 113 112 112 115 116 112 117 116 127 145 181 181 197 186 192 189 174 190 195 213 247 298 298 261 259 267 253 251 252 257 262
318 305 281 296 317 318 329 329 290 284 272 265 263 213 165 151 134 130 120 119 138 133 138 143 143 157 162 195 166 163 172 202 217 215 206 209 248 314 308 213 284 287 267 240 255 262 277
304 305 292 270 301 311 316 327 336 283 262 252 255 256 251 213 187 177 169 158 160 174 189 181 175 179 184 172 165 173 173 171 236 204 216 223 249 264 291 312 311 184 139 283 290 294 279
295 300 296 265 286 301 303 315 328 341 299 250 253 256 258 254 231 222 216 206 205 214 209 203 203 203 210 212 198 172 194 210 222 224 212 217 237 251 266 270 288 242 233 266 316 323 45
289 296 290 272 267 288 293 301 312 323 323 322 262 252 258 255 246 239 232 238 234 228 236 217 208 206 212 202 189 200 199 198 189 217 224 228 233 231 237 264 261 190 196 309 321 92 335
296 290 283 266 241 277 286 295 301 311 312 315 313 296 262 255 250 246 241 236 232 230 228 215 207 206 202 201 207 220 217 209 209 199 206 214 228 236 250 256 276 221 277 306 291 321 330
291 291 273 256 237 267 273 281 291 300 304 308 307 303 296 281 255 245 234 232 232 227 224 212 223 225 215 210 216 209 219 216 226 219 221 219 212 222 224 237 253 183 198 341 305 323 324
292 286 264 253 240 267 275 279 287 296 297 299 304 304 300 290 276 262 242 234 226 225 221 216 216 234 214 207 212 211 210 211 222 222 219 222 220 235 220 240 199 200 266 307 298 307 318
Height
3095 3090 3083 3077 3069 3061 3053 3044 3034 3027 3020 3015 3011 3007 3004 3001 2998 2996 2995 2995 2995 2997 3002 3010 3019 3024 3023 3024 3031 3035 3037 3043 3047 3051 3056 3060 3066 3069 3073 3077 3083 3083 3087 3093 3097 3101 3102
3091 3085 3078 3072 3062 3055 3045 3035 3026 3019 3013 3008 3004 3000 2996 2994 2991 2988 2988 2988 2988 2989 2993 3000 3011 3017 3017 3018 3030 3032 3035 3038 3043 3048 3052 3056 3063 3069 3072 3076 3078 3081 3085 3089 3093 3096 3097
3087 3081 3075 3066 3057 3048 3037 3027 3019 3013 3008 3003 2999 2994 2990 2988 2985 2982 2982 2982 2982 2983 2986 2991 3003 3009 3008 3017 3023 3027 3033 3036 3041 3046 3050 3055 3061 3065 3068 3073 3076 3080 3084 3086 3088 3091 3093
3083 3077 3069 3062 3051 3040 3030 3021 3015 3009 3004 3000 2995 2991 2987 2983 2981 2978 2978 2977 2977 2978 2980 2985 2995 3004 3003 3011 3018 3024 3030 3034 3039 3045 3050 3056 3059 3064 3067 3071 3074 3077 3081 3082 3084 3088 3089
3079 3072 3065 3056 3046 3035 3025 3017 3010 3004 3000 2995 2991 2987 2984 2981 2978 2975 2974 2973 2973 2974 2975 2980 2989 2999 3003 3003 3012 3020 3028 3034 3039 3044 3048 3053 3057 3062 3066 3069 3072 3074 3076 3079 3083 3085 3086
3076 3068 3060 3051 3040 3029 3021 3013 3006 3001 2996 2991 2987 2985 2982 2978 2975 2972 2969 2969 2969 2970 2971 2976 2986 2996 2999 3006 3012 3019 3026 3031 3037 3042 3044 3050 3055 3058 3062 3065 3066 3070 3075 3076 3079 3082 3080
3073 3065 3057 3047 3036 3025 3016 3009 3002 2997 2993 2989 2985 2982 2979 2977 2972 2969 2965 2964 2968 2969 2968 2975 2984 2990 2995 3002 3011 3019 3024 3030 3036 3041 3042 3048 3052 3052 3057 3064 3068 3071 3074 3075 3076 3077 3076
3071 3062 3054 3044 3032 3021 3012 3005 2999 2994 2990 2985 2982 2979 2975 2972 2969 2965 2962 2961 2963 2965 2967 2976 2984 2992 2995 3001 3008 3017 3024 3031 3034 3039 3042 3048 3048 3053 3060 3063 3067 3070 3072 3073 3074 3075 3073
3068 3060 3052 3041 3029 3020 3010 3002 2994 2989 2985 2980 2978 2975 2972 2968 2965 2964 2961 2961 2962 2964 2970 2979 2983 2992 2996 3003 3009 3015 3022 3029 3034 3038 3040 3041 3047 3051 3056 3061 3065 3067 3069 3071 3073 3071 3069
3067 3059 3050 3039 3029 3019 3008 3000 2992 2987 2982 2977 2974 2970 2966 2961 2958 2957 2957 2959 2962 2966 2975 2982 2986 2991 2997 3003 3012 3018 3024 3031 3034 3038 3040 3045 3048 3051 3054 3057 3062 3065 3067 3069 3069 3070 3068
3065 3057 3048 3038 3029 3020 3009 2999 2992 2985 2980 2975 2969 2965 2961 2958 2955 2956 2959 2960 2964 2970 2974 2984 2987 2993 2999 3006 3011 3018 3026 3029 3033 3036 3042 3045 3047 3050 3053 3057 3061 3064 3066 3067 3066 3066 3065
3065 3057 3048 3039 3030 3021 3009 2999 2991 2985 2981 2974 2969 2964 2960 2958 2957 2959 2961 2964 2969 2974 2976 2982 2985 2992 3000 3006 3012 3018 3025 3030 3035 3038 3042 3044 3048 3052 3053 3057 3061 3063 3065 3065 3064 3064 3063
3064 3056 3048 3040 3032 3023 3010 3001 2994 2988 2983 2979 2976 2970 2966 2964 2964 2964 2967 2971 2975 2973 2982 2986 2989 2996 3004 3009 3016 3022 3024 3030 3034 3038 3042 3045 3048 3051 3053 3057 3060 3061 3063 3064 3066 3065 3062
3065 3057 3048 3042 3034 3026 3013 3006 2997 2992 2988 2984 2981 2979 2976 2974 2972 2974 2977 2977 2976 2979 2981 2988 2993 3001 3006 3014 3020 3023 3028 3032 3035 3038 3041 3046 3051 3051 3053 3055 3058 3058 3061 3062 3064 3065 3060
3066 3058 3050 3044 3037 3029 3019 3009 3003 2996 2992 2988 2986 2986 2985 2982 2982 2983 2982 2979 2982 2983 2987 2992 3000 3006 3011 3016 3020 3025 3030 3034 3036 3039 3043 3045 3048 3050 3051 3053 3057 3057 3059 3061 3062 3062 3061
3065 3059 3050 3046 3040 3033 3024 3015 3009 3003 2998 2996 2996 2993 2992 2990 2989 2988 2986 2984 2988 2992 2997 3002 3003 3010 3014 3018 3022 3025 3030 3034 3037 3040 3042 3044 3047 3049 3050 3052 3054 3056 3057 3060 3060 3066 3062
3066 3060 3050 3048 3043 3037 3028 3022 3016 3011 3008 3004 3003 3000 2997 2994 2993 2992 2989 2993 2995 2999 3002 3005 3007 3010 3015 3018 3022 3026 3030 3033 3036 3039 3041 3043 3045 3049 3051 3050 3050 3053 3054 3056 3057 3059 3060
3066 3060 3053 3048 3046 3041 3033 3027 3022 3016 3013 3013 3009 3006 3003 3001 3000 2996 2996 2998 3002 3006 3007 3009 3011 3014 3017 3020 3022 3027 3029 3033 3035 3038 3041 3043 3045 3047 3048 3048 3048 3050 3053 3054 3055 3058 3058
3063 3060 3054 3049 3046 3043 3037 3032 3027 3023 3018 3017 3014 3010 3008 3006 3003 3002 3003 3004 3006 3008 3009 3011 3012 3016 3018 3021 3025 3027 3029 3032 3033 3036 3040 3042 3044 3044 3046 3049 3048 3048 3049 3051 3054 3055 3054
3059 3058 3054 3048 3045 3042 3040 3036 3032 3028 3024 3021 3018 3016 3014 3013 3010 3009 3008 3009 3008 3009 3010 3012 3013 3015 3019 3022 3024 3026 3028 3031 3032 3035 3039 3041 3042 3042 3044 3043 3043 3044 3045 3048 3050 3050 3047
3055 3054 3052 3047 3044 3041 3039 3037 3034 3031 3028 3024 3021 3018 3016 3017 3015 3014 3014 3014 3013 3011 3011 3013 3015 3017 3021 3023 3024 3026 3028 3030 3033 3035 3037 3040 3040 3041 3041 3042 3041 3042 3042 3043 3043 3044 3044
3051 3050 3048 3046 3042 3039 3036 3035 3032 3030 3028 3028 3025 3022 3020 3019 3019 3018 3018 3018 3017 3016 3017 3018 3019 3021 3023 3024 3025 3025 3028 3030 3032 3034 3037 3039 3040 3039 3038 3037 3038 3037 3037 3038 3039 3039 3037
3047 3045 3043 3042 3040 3038 3034 3031 3030 3029 3027 3026 3027 3025 3023 3021 3020 3020 3020 3021 3020 3020 3021 3021 3022 3023 3024 3026 3026 3028 3030 3031 3032 3034 3035 3038 3039 3039 3036 3036 3036 3033 3028 3031 3033 3034 3034
3042 3040 3039 3037 3036 3035 3032 3030 3027 3026 3025 3023 3023 3024 3024 3023 3022 3021 3020 3020 3021 3021 3021 3022 3023 3024 3026 3026 3027 3029 3030 3031 3032 3032 3034 3037 3038 3039 3036 3035 3037 3030 3029 3030 3030 3030 3030
3036 3034 3033 3032 3031 3031 3029 3026 3025 3023 3022 3019 3018 3020 3021 3021 3021 3020 3020 3020 3020 3020 3021 3021 3022 3024 3025 3026 3028 3029 3030 3031 3031 3032 3034 3035 3037 3037 3036 3035 3030 3029 3029 3030 3029 3029 3028
3028 3027 3026 3026 3026 3025 3025 3024 3022 3020 3019 3017 3015 3015 3015 3017 3017 3017 3017 3018 3018 3018 3019 3019 3020 3021 3023 3024 3026 3026 3027 3028 3029 3030 3031 3033 3034 3037 3035 3035 3030 3027 3027 3028 3026 3026 3027
3021 3019 3018 3019 3020 3020 3020 3019 3018 3017 3015 3014 3013 3011 3010 3010 3012 3012 3012 3014 3015 3015 3016 3017 3018 3020 3021 3022 3023 3024 3025 3026 3025 3026 3027 3029 3031 3031 3033 3033 3027 3026 3027 3026 3027 3030 3024
3014 3012 3012 3013 3013 3015 3014 3014 3013 3013 3011 3010 3009 3007 3006 3004 3006 3005 3006 3008 3009 3011 3013 3015 3017 3017 3018 3020 3020 3020 3021 3022 3023 3023 3023 3026 3027 3027 3029 3030 3026 3023 3024 3026 3025 3022 3020
3008 3007 3008 3009 3008 3009 3009 3008 3007 3006 3005 3005 3003 3001 2998 2997 3000 2998 2999 3001 3003 3007 3009 3010 3012 3013 3015 3016 3017 3017 3017 3018 3019 3020 3021 3023 3022 3022 3023 3021 3021 3020 3021 3021 3019 3018 3016